Time,TemperatureF,DewpointF,PressureIn,WindDirection,WindDirectionDegrees,WindSpeedMPH,WindSpeedGustMPH,Humidity,HourlyPrecipIn,Conditions,Clouds,dailyrainin,SoftwareType,DateUTC
2013-09-02 00:14:00,70.9,68.0,29.71,West,259,0.0,0.0,91,0.00,,,0.00,weatherlink.com 1.10,2013-09-02 04:14:00,
2013-09-02 00:29:00,70.5,68.0,29.71,WSW,258,0.0,0.0,92,0.00,,,0.00,weatherlink.com 1.10,2013-09-02 04:29:00,
2013-09-02 00:44:00,70.3,68.0,29.70,WNW,297,0.0,0.0,93,0.00,,,0.00,weatherlink.com 1.10,2013-09-02 04:44:00,
2013-09-02 00:59:00,70.0,68.0,29.71,WNW,300,0.0,0.0,93,0.00,,,0.00,weatherlink.com 1.10,2013-09-02 04:59:00,
2013-09-02 01:14:00,69.7,68.0,29.71,NW,306,0.0,0.0,94,0.00,,,0.00,weatherlink.com 1.10,2013-09-02 05:14:00,
2013-09-02 01:29:00,69.5,68.0,29.72,NW,307,0.0,0.0,94,0.00,,,0.00,weatherlink.com 1.10,2013-09-02 05:29:00,
2013-09-02 01:44:00,69.6,68.0,29.72,NW,304,0.0,0.0,95,0.00,,,0.00,weatherlink.com 1.10,2013-09-02 05:44:00,
2013-09-02 01:59:00,69.8,68.0,29.72,NW,305,0.0,0.0,95,0.00,,,0.00,weatherlink.com 1.10,2013-09-02 05:59:00,
2013-09-02 02:14:00,69.9,69.0,29.72,NW,312,0.0,0.0,95,0.00,,,0.00,weatherlink.com 1.10,2013-09-02 06:14:00,
2013-09-02 02:29:00,69.9,69.0,29.71,NW,312,0.0,0.0,95,0.00,,,0.00,weatherlink.com 1.10,2013-09-02 06:29:00,
2013-09-02 02:44:00,69.9,69.0,29.71,NW,307,0.0,0.0,95,0.00,,,0.00,weatherlink.com 1.10,2013-09-02 06:44:00,
2013-09-02 02:59:00,69.8,68.0,29.72,NW,308,0.0,0.0,95,0.00,,,0.00,weatherlink.com 1.10,2013-09-02 06:59:00,
2013-09-02 03:14:00,69.6,68.0,29.72,NW,308,0.0,0.0,95,0.00,,,0.00,weatherlink.com 1.10,2013-09-02 07:14:00,
2013-09-02 03:29:00,69.4,68.0,29.72,NW,308,0.0,0.0,95,0.00,,,0.00,weatherlink.com 1.10,2013-09-02 07:29:00,
2013-09-02 03:44:00,69.0,68.0,29.72,NW,308,0.0,0.0,95,0.00,,,0.00,weatherlink.com 1.10,2013-09-02 07:44:00,
2013-09-02 03:59:00,68.6,67.0,29.72,NW,307,0.0,0.0,95,0.00,,,0.00,weatherlink.com 1.10,2013-09-02 07:59:00,
2013-09-02 04:14:00,68.3,67.0,29.72,NW,308,0.0,0.0,95,0.00,,,0.00,weatherlink.com 1.10,2013-09-02 08:14:00,
2013-09-02 04:29:00,67.8,66.0,29.73,NW,308,0.0,0.0,95,0.00,,,0.00,weatherlink.com 1.10,2013-09-02 08:29:00,
2013-09-02 04:44:00,67.3,66.0,29.73,SSE,159,0.0,0.0,95,0.00,,,0.00,weatherlink.com 1.10,2013-09-02 08:44:00,
2013-09-02 04:59:00,66.7,65.0,29.73,SSE,160,0.0,0.0,95,0.00,,,0.00,weatherlink.com 1.10,2013-09-02 08:59:00,
2013-09-02 05:14:00,66.3,65.0,29.73,West,278,0.0,0.0,95,0.00,,,0.00,weatherlink.com 1.10,2013-09-02 09:14:00,
2013-09-02 05:29:00,65.8,64.0,29.74,West,278,0.0,0.0,95,0.00,,,0.00,weatherlink.com 1.10,2013-09-02 09:29:00,
2013-09-02 05:44:00,65.4,64.0,29.75,SE,142,0.0,0.0,95,0.00,,,0.00,weatherlink.com 1.10,2013-09-02 09:44:00,
2013-09-02 05:59:00,64.9,63.0,29.75,WNW,296,0.0,0.0,94,0.00,,,0.00,weatherlink.com 1.10,2013-09-02 09:59:00,
2013-09-02 06:14:00,64.4,63.0,29.75,WNW,300,0.0,0.0,94,0.00,,,0.00,weatherlink.com 1.10,2013-09-02 10:14:00,
2013-09-02 06:30:00,63.8,62.0,29.76,WSW,255,0.0,0.0,92,0.00,,,0.00,weatherlink.com 1.10,2013-09-02 10:30:00,
2013-09-02 06:45:00,63.4,61.0,29.77,West,266,0.0,0.0,92,0.00,,,0.00,weatherlink.com 1.10,2013-09-02 10:45:00,
2013-09-02 07:00:00,63.0,61.0,29.78,SSE,153,0.0,0.0,92,0.00,,,0.00,weatherlink.com 1.10,2013-09-02 11:00:00,
2013-09-02 07:15:00,62.7,61.0,29.79,WNW,283,0.0,0.0,93,0.00,,,0.00,weatherlink.com 1.10,2013-09-02 11:15:00,
2013-09-02 07:30:00,62.6,60.0,29.80,NW,311,0.0,3.0,92,0.00,,,0.00,weatherlink.com 1.10,2013-09-02 11:30:00,
2013-09-02 07:45:00,62.1,60.0,29.80,WNW,288,0.0,3.0,91,0.00,,,0.00,weatherlink.com 1.10,2013-09-02 11:45:00,
2013-09-02 08:00:00,61.9,59.0,29.81,WNW,288,0.0,0.0,91,0.00,,,0.00,weatherlink.com 1.10,2013-09-02 12:00:00,
2013-09-02 08:15:00,61.6,59.0,29.81,WNW,285,0.0,0.0,91,0.00,,,0.00,weatherlink.com 1.10,2013-09-02 12:15:00,
2013-09-02 08:30:00,61.7,59.0,29.82,SE,124,3.0,3.0,91,0.00,,,0.00,weatherlink.com 1.10,2013-09-02 12:30:00,
2013-09-02 08:45:00,61.7,59.0,29.82,ESE,122,0.0,2.0,90,0.00,,,0.00,weatherlink.com 1.10,2013-09-02 12:45:00,
2013-09-02 09:00:00,62.0,59.0,29.82,SE,126,0.0,0.0,90,0.00,,,0.00,weatherlink.com 1.10,2013-09-02 13:00:00,
2013-09-02 09:15:00,62.8,60.0,29.83,WNW,296,1.0,2.0,91,0.00,,,0.00,weatherlink.com 1.10,2013-09-02 13:15:00,
2013-09-02 09:30:00,63.1,60.0,29.83,WSW,253,0.0,3.0,88,0.00,,,0.00,weatherlink.com 1.10,2013-09-02 13:30:00,
2013-09-02 09:45:00,64.0,60.0,29.84,NW,314,1.0,3.0,87,0.00,,,0.00,weatherlink.com 1.10,2013-09-02 13:45:00,
2013-09-02 10:00:00,64.9,60.0,29.84,SW,231,0.0,2.0,83,0.00,,,0.00,weatherlink.com 1.10,2013-09-02 14:00:00,
2013-09-02 10:15:00,66.0,60.0,29.83,NW,312,0.0,2.0,82,0.00,,,0.00,weatherlink.com 1.10,2013-09-02 14:15:00,
2013-09-02 10:30:00,67.3,60.0,29.83,North,352,0.0,2.0,78,0.00,,,0.00,weatherlink.com 1.10,2013-09-02 14:30:00,
2013-09-02 10:45:00,68.1,61.0,29.84,WSW,250,1.0,4.0,77,0.00,,,0.00,weatherlink.com 1.10,2013-09-02 14:45:00,
2013-09-02 11:00:00,68.3,60.0,29.84,WNW,285,1.0,3.0,76,0.00,,,0.00,weatherlink.com 1.10,2013-09-02 15:00:00,
2013-09-02 11:15:00,67.6,60.0,29.84,SE,124,0.0,3.0,77,0.00,,,0.00,weatherlink.com 1.10,2013-09-02 15:15:00,
2013-09-02 11:30:00,67.9,60.0,29.84,WNW,284,0.0,2.0,76,0.00,,,0.00,weatherlink.com 1.10,2013-09-02 15:30:00,
2013-09-02 11:45:00,68.5,60.0,29.84,NW,322,0.0,3.0,75,0.00,,,0.00,weatherlink.com 1.10,2013-09-02 15:45:00,
2013-09-02 12:00:00,67.9,60.0,29.84,WNW,290,1.0,3.0,77,0.00,,,0.00,weatherlink.com 1.10,2013-09-02 16:00:00,
2013-09-02 12:15:00,67.5,59.0,29.85,NW,308,0.0,3.0,75,0.00,,,0.00,weatherlink.com 1.10,2013-09-02 16:15:00,
2013-09-02 12:30:00,67.6,60.0,29.85,NW,304,0.0,0.0,76,0.00,,,0.00,weatherlink.com 1.10,2013-09-02 16:30:00,
2013-09-02 12:45:00,68.0,60.0,29.84,West,281,0.0,4.0,76,0.00,,,0.00,weatherlink.com 1.10,2013-09-02 16:45:00,
2013-09-02 13:00:00,68.1,59.0,29.84,WNW,300,3.0,4.0,73,0.00,,,0.00,weatherlink.com 1.10,2013-09-02 17:00:00,
2013-09-02 13:15:00,68.2,59.0,29.85,WNW,290,1.0,4.0,73,0.00,,,0.00,weatherlink.com 1.10,2013-09-02 17:15:00,
2013-09-02 13:30:00,68.3,59.0,29.84,WNW,289,3.0,4.0,73,0.00,,,0.00,weatherlink.com 1.10,2013-09-02 17:30:00,
2013-09-02 13:45:00,68.2,59.0,29.85,WNW,300,1.0,4.0,73,0.00,,,0.00,weatherlink.com 1.10,2013-09-02 17:45:00,
2013-09-02 14:00:00,67.9,60.0,29.85,WNW,285,1.0,3.0,75,0.00,,,0.00,weatherlink.com 1.10,2013-09-02 18:00:00,
2013-09-02 14:15:00,67.9,59.0,29.85,West,281,1.0,5.0,74,0.00,,,0.00,weatherlink.com 1.10,2013-09-02 18:15:00,
2013-09-02 14:30:00,68.2,59.0,29.85,WNW,294,1.0,6.0,73,0.00,,,0.00,weatherlink.com 1.10,2013-09-02 18:30:00,
2013-09-02 14:45:00,68.1,59.0,29.85,WNW,302,4.0,5.0,72,0.00,,,0.00,weatherlink.com 1.10,2013-09-02 18:45:00,
2013-09-02 15:00:00,68.1,58.0,29.85,NW,305,1.0,5.0,71,0.00,,,0.00,weatherlink.com 1.10,2013-09-02 19:00:00,
2013-09-02 15:15:00,68.1,58.0,29.84,West,276,1.0,6.0,70,0.00,,,0.00,weatherlink.com 1.10,2013-09-02 19:15:00,
2013-09-02 15:30:00,68.6,58.0,29.84,WNW,283,1.0,4.0,70,0.00,,,0.00,weatherlink.com 1.10,2013-09-02 19:30:00,
2013-09-02 15:45:00,68.0,58.0,29.85,NW,306,2.0,5.0,71,0.00,,,0.00,weatherlink.com 1.10,2013-09-02 19:45:00,
2013-09-02 16:00:00,67.4,58.0,29.85,NW,305,1.0,4.0,73,0.00,,,0.00,weatherlink.com 1.10,2013-09-02 20:00:00,
2013-09-02 16:15:00,67.3,58.0,29.85,WNW,288,1.0,2.0,71,0.00,,,0.00,weatherlink.com 1.10,2013-09-02 20:15:00,
2013-09-02 16:30:00,67.1,57.0,29.85,NW,306,3.0,4.0,70,0.00,,,0.00,weatherlink.com 1.10,2013-09-02 20:30:00,
2013-09-02 16:45:00,66.6,58.0,29.85,West,272,1.0,4.0,73,0.00,,,0.00,weatherlink.com 1.10,2013-09-02 20:45:00,
2013-09-02 17:00:00,66.5,58.0,29.85,NW,309,1.0,5.0,73,0.00,,,0.00,weatherlink.com 1.10,2013-09-02 21:00:00,
2013-09-02 17:15:00,65.9,57.0,29.85,WNW,284,1.0,5.0,73,0.00,,,0.00,weatherlink.com 1.10,2013-09-02 21:15:00,
2013-09-02 17:30:00,65.7,56.0,29.85,NW,304,1.0,4.0,71,0.00,,,0.00,weatherlink.com 1.10,2013-09-02 21:30:00,
2013-09-02 17:46:00,64.9,56.0,29.86,NNW,339,2.0,4.0,74,0.00,,,0.00,weatherlink.com 1.10,2013-09-02 21:46:00,
2013-09-02 18:01:00,64.3,55.0,29.87,WNW,287,1.0,4.0,73,0.00,,,0.00,weatherlink.com 1.10,2013-09-02 22:01:00,
2013-09-02 18:16:00,64.0,55.0,29.87,NW,309,1.0,5.0,72,0.00,,,0.00,weatherlink.com 1.10,2013-09-02 22:16:00,
2013-09-02 18:31:00,63.6,55.0,29.87,NW,305,1.0,4.0,73,0.00,,,0.00,weatherlink.com 1.10,2013-09-02 22:31:00,
2013-09-02 18:46:00,63.3,55.0,29.87,NW,308,1.0,3.0,74,0.00,,,0.00,weatherlink.com 1.10,2013-09-02 22:46:00,
2013-09-02 19:01:00,63.1,55.0,29.87,WNW,294,1.0,3.0,75,0.00,,,0.00,weatherlink.com 1.10,2013-09-02 23:01:00,
2013-09-02 19:16:00,62.9,55.0,29.87,NW,307,1.0,4.0,76,0.00,,,0.00,weatherlink.com 1.10,2013-09-02 23:16:00,
2013-09-02 19:31:00,62.5,55.0,29.88,West,278,1.0,4.0,75,0.00,,,0.00,weatherlink.com 1.10,2013-09-02 23:31:00,
2013-09-02 19:46:00,62.0,54.0,29.88,NW,306,1.0,4.0,76,0.00,,,0.00,weatherlink.com 1.10,2013-09-02 23:46:00,
2013-09-02 20:01:00,61.7,54.0,29.88,WNW,293,1.0,3.0,77,0.00,,,0.00,weatherlink.com 1.10,2013-09-03 00:01:00,
2013-09-02 20:16:00,61.1,54.0,29.88,WNW,294,1.0,3.0,76,0.00,,,0.00,weatherlink.com 1.10,2013-09-03 00:16:00,
2013-09-02 20:31:00,60.9,53.0,29.88,West,276,0.0,0.0,76,0.00,,,0.00,weatherlink.com 1.10,2013-09-03 00:31:00,
2013-09-02 20:46:00,60.8,54.0,29.89,NW,304,0.0,1.0,77,0.00,,,0.00,weatherlink.com 1.10,2013-09-03 00:46:00,
2013-09-02 21:01:00,60.8,53.0,29.89,WSW,255,0.0,0.0,76,0.00,,,0.00,weatherlink.com 1.10,2013-09-03 01:01:00,
2013-09-02 21:16:00,60.7,53.0,29.90,NW,304,0.0,0.0,76,0.00,,,0.00,weatherlink.com 1.10,2013-09-03 01:16:00,
2013-09-02 21:31:00,60.6,53.0,29.90,WNW,289,1.0,2.0,76,0.00,,,0.00,weatherlink.com 1.10,2013-09-03 01:31:00,
2013-09-02 21:46:00,60.5,53.0,29.90,WNW,297,1.0,3.0,77,0.00,,,0.00,weatherlink.com 1.10,2013-09-03 01:46:00,
2013-09-02 22:01:00,60.4,54.0,29.91,WNW,302,1.0,2.0,78,0.00,,,0.00,weatherlink.com 1.10,2013-09-03 02:01:00,
2013-09-02 22:16:00,60.3,53.0,29.91,WNW,289,0.0,0.0,78,0.00,,,0.00,weatherlink.com 1.10,2013-09-03 02:16:00,
2013-09-02 22:31:00,60.4,54.0,29.91,WNW,289,0.0,0.0,78,0.00,,,0.00,weatherlink.com 1.10,2013-09-03 02:31:00,
2013-09-02 22:46:00,60.4,53.0,29.91,NW,309,0.0,1.0,77,0.00,,,0.00,weatherlink.com 1.10,2013-09-03 02:46:00,
2013-09-02 23:01:00,60.4,54.0,29.92,WNW,295,0.0,1.0,78,0.00,,,0.00,weatherlink.com 1.10,2013-09-03 03:01:00,
2013-09-02 23:16:00,60.2,54.0,29.92,SE,128,0.0,3.0,79,0.00,,,0.00,weatherlink.com 1.10,2013-09-03 03:16:00,
2013-09-02 23:31:00,59.9,54.0,29.92,SE,128,0.0,1.0,80,0.00,,,0.00,weatherlink.com 1.10,2013-09-03 03:31:00,
2013-09-02 23:46:00,59.7,54.0,29.92,SE,128,0.0,0.0,81,0.00,,,0.00,weatherlink.com 1.10,2013-09-03 03:46:00,